This is the latest recevied weather packets stored in our database for station/object DL6MAA-11. If no packets are shown the sender has not sent any weather packets the latest 10 day(s).
| Time | Temp. | Humidity | Pressure | Rain* | Wind** | Luminosity | Snow |
|---|---|---|---|---|---|---|---|
| 1777457550 | 15.56° C | 43% | 1018.1 hPa | 0 mm | - | 529 W/m² | - |
| 1777457250 | 15.56° C | 45% | 1018.1 hPa | 0 mm | - | 531 W/m² | - |
| 1777456949 | 15.56° C | 44% | 1018.1 hPa | 0 mm | - | 527 W/m² | - |
| 1777456648 | 15.56° C | 44% | 1018.1 hPa | 0 mm | - | 496 W/m² | - |
| 1777456348 | 15.56° C | 44% | 1018.1 hPa | 0 mm | - | 334 W/m² | - |
| 1777456049 | 15° C | 45% | 1018.1 hPa | 0 mm | - | 120 W/m² | - |
| 1777455738 | 15° C | 46% | 1017.2 hPa | 0 mm | - | 72 W/m² | - |
| 1777455441 | 14.44° C | 46% | 1017.2 hPa | 0 mm | - | 72 W/m² | - |
| 1777455142 | 14.44° C | 46% | 1017.2 hPa | 0 mm | - | 67 W/m² | - |
| 1777454845 | 14.44° C | 46% | 1017.4 hPa | 0 mm | - | 62 W/m² | - |
| 1777454543 | 14.44° C | 47% | 1017.4 hPa | 0 mm | - | 65 W/m² | - |
| 1777454234 | 13.89° C | 47% | 1017.4 hPa | 0 mm | - | 58 W/m² | - |
| 1777453946 | 13.33° C | 49% | 1017.3 hPa | 0 mm | - | 58 W/m² | - |
| 1777453648 | 13.33° C | 49% | 1017.3 hPa | 0 mm | - | 53 W/m² | - |
| 1777453336 | 13.33° C | 47% | 1017.3 hPa | 0 mm | - | 60 W/m² | - |
| 1777453042 | 13.33° C | 48% | 1017.3 hPa | 0 mm | - | 53 W/m² | - |
| 1777452746 | 12.78° C | 49% | 1017.3 hPa | 0 mm | - | 69 W/m² | - |
| 1777452453 | 12.78° C | 49% | 1017.3 hPa | 0 mm | - | 74 W/m² | - |
| 1777452141 | 12.78° C | 49% | 1017.4 hPa | 0 mm | - | 86 W/m² | - |
| 1777451852 | 12.22° C | 52% | 1017.4 hPa | 0 mm | - | 114 W/m² | - |
| 1777451537 | 11.67° C | 51% | 1017.4 hPa | 0 mm | - | 248 W/m² | - |
| 1777451241 | 11.67° C | 52% | 1017.5 hPa | 0 mm | - | 260 W/m² | - |
| 1777450948 | 11.11° C | 55% | 1017.5 hPa | 0 mm | - | 244 W/m² | - |
| 1777450636 | 10.56° C | 53% | 1017.5 hPa | 0 mm | - | 267 W/m² | - |
| 1777450350 | 10.56° C | 53% | 1017.4 hPa | 0 mm | - | 155 W/m² | - |
* Rain since midnight (hover to see other rain measurements)
** Current wind speed in m/s (hover to see current wind gust speed)